ASA804 PHNL-KLAX

Flight info

Callsign ASA804
Flight time N/A
Altitude 41000
Route MKK5 CODDY EBBER R577 ELKEY RYDRR2
Aircraft A332/H-SDE3GHIJ2J3J5M1RVWXY/LB2D1

Departure

Time 2026-05-06 14:16
Airport Daniel K. Inouye International Airport (PHNL)

Arrival

Time N/A
Airport Los Angeles International Airport (KLAX)
Time Latitude Longitude Altitude Speed Heading
2026-05-06 13:32 21.33696 -157.92438 28 ft 0 kts 182°
2026-05-06 14:01 21.33699 -157.92438 18 ft 3 kts 182°
2026-05-06 14:01 21.33725 -157.92437 28 ft 4 kts 182°
2026-05-06 14:01 21.33746 -157.92436 28 ft 4 kts 188°
2026-05-06 14:01 21.33768 -157.92427 28 ft 4 kts 245°
2026-05-06 14:02 21.33769 -157.92403 28 ft 4 kts 279°
2026-05-06 14:02 21.33767 -157.92389 28 ft 0 kts 279°
2026-05-06 14:05 21.33768 -157.92400 28 ft 5 kts 279°
2026-05-06 14:05 21.33776 -157.92452 28 ft 9 kts 279°
2026-05-06 14:05 21.33776 -157.92531 28 ft 12 kts 256°
2026-05-06 14:06 21.33715 -157.92601 28 ft 15 kts 205°
2026-05-06 14:06 21.33612 -157.92619 28 ft 16 kts 174°
2026-05-06 14:06 21.33505 -157.92563 28 ft 19 kts 145°
2026-05-06 14:06 21.33380 -157.92536 28 ft 19 kts 188°
2026-05-06 14:07 21.33244 -157.92555 28 ft 20 kts 187°
2026-05-06 14:07 21.33107 -157.92597 28 ft 21 kts 207°
2026-05-06 14:07 21.32994 -157.92696 28 ft 20 kts 226°
2026-05-06 14:07 21.32900 -157.92791 28 ft 19 kts 210°
2026-05-06 14:08 21.32773 -157.92816 28 ft 17 kts 205°
2026-05-06 14:08 21.32743 -157.92931 28 ft 17 kts 270°
2026-05-06 14:08 21.32743 -157.93063 28 ft 18 kts 270°
2026-05-06 14:08 21.32743 -157.93201 28 ft 19 kts 270°
2026-05-06 14:09 21.32742 -157.93351 28 ft 20 kts 269°
2026-05-06 14:09 21.32742 -157.93503 28 ft 20 kts 270°
2026-05-06 14:09 21.32742 -157.93657 28 ft 20 kts 269°
2026-05-06 14:09 21.32742 -157.93813 28 ft 21 kts 270°
2026-05-06 14:10 21.32742 -157.93967 28 ft 21 kts 270°
2026-05-06 14:10 21.32683 -157.94094 28 ft 20 kts 213°
2026-05-06 14:10 21.32562 -157.94168 28 ft 20 kts 208°
2026-05-06 14:10 21.32437 -157.94242 28 ft 21 kts 209°
2026-05-06 14:11 21.32307 -157.94320 28 ft 22 kts 209°
2026-05-06 14:11 21.32169 -157.94402 28 ft 23 kts 209°
2026-05-06 14:11 21.32032 -157.94484 28 ft 23 kts 209°
2026-05-06 14:11 21.31888 -157.94569 28 ft 24 kts 209°
2026-05-06 14:12 21.31745 -157.94648 28 ft 22 kts 197°
2026-05-06 14:12 21.31588 -157.94651 28 ft 23 kts 173°
2026-05-06 14:12 21.31424 -157.94630 28 ft 24 kts 173°
2026-05-06 14:12 21.31256 -157.94608 28 ft 25 kts 173°
2026-05-06 14:13 21.31108 -157.94588 28 ft 20 kts 172°
2026-05-06 14:13 21.30965 -157.94571 28 ft 21 kts 178°
2026-05-06 14:13 21.30813 -157.94570 28 ft 22 kts 180°
2026-05-06 14:13 21.30702 -157.94570 27 ft 7 kts 180°
2026-05-06 14:14 21.30683 -157.94560 28 ft 2 kts 130°
2026-05-06 14:14 21.30679 -157.94537 28 ft 5 kts 93°
2026-05-06 14:14 21.30681 -157.94511 29 ft 0 kts 89°
2026-05-06 14:15 21.30681 -157.94441 31 ft 30 kts 89°
2026-05-06 14:15 21.30682 -157.93964 33 ft 96 kts 90°
2026-05-06 14:15 21.30682 -157.93025 25 ft 153 kts 89°
2026-05-06 14:16 21.30675 -157.91709 216 ft 193 kts 92°
2026-05-06 14:16 21.30669 -157.90219 864 ft 206 kts 89°
2026-05-06 14:16 21.30444 -157.88643 1574 ft 221 kts 108°
2026-05-06 14:16 21.29725 -157.87138 2160 ft 242 kts 120°
2026-05-06 14:17 21.28792 -157.85535 2605 ft 262 kts 121°
2026-05-06 14:17 21.27805 -157.83858 3324 ft 268 kts 122°
2026-05-06 14:17 21.26823 -157.82136 4094 ft 273 kts 121°
2026-05-06 14:17 21.25844 -157.80379 4956 ft 275 kts 122°
2026-05-06 14:18 21.24874 -157.78602 5817 ft 277 kts 121°
2026-05-06 14:18 21.23919 -157.76829 6672 ft 278 kts 121°
2026-05-06 14:18 21.22934 -157.74994 7483 ft 283 kts 121°
2026-05-06 14:18 21.21950 -157.73171 8241 ft 289 kts 121°
2026-05-06 14:19 21.21009 -157.71249 9022 ft 295 kts 112°
2026-05-06 14:19 21.20440 -157.69121 9829 ft 300 kts 102°
2026-05-06 14:19 21.20067 -157.66874 10387 ft 313 kts 99°
2026-05-06 14:19 21.19738 -157.64495 10681 ft 333 kts 98°
2026-05-06 14:20 21.19416 -157.61968 10960 ft 352 kts 98°
2026-05-06 14:20 21.19083 -157.59299 11234 ft 370 kts 98°
2026-05-06 14:20 21.18744 -157.56550 11605 ft 382 kts 98°
2026-05-06 14:20 21.18392 -157.53695 12166 ft 388 kts 98°
2026-05-06 14:21 21.18037 -157.50805 12788 ft 392 kts 98°
2026-05-06 14:21 21.17678 -157.47893 13405 ft 396 kts 98°
2026-05-06 14:21 21.17316 -157.44960 13983 ft 400 kts 98°
2026-05-06 14:21 21.16948 -157.41980 14531 ft 404 kts 98°
2026-05-06 14:22 21.16578 -157.38986 15075 ft 407 kts 98°
2026-05-06 14:22 21.16208 -157.36002 15616 ft 411 kts 98°
2026-05-06 14:22 21.15830 -157.32953 16148 ft 414 kts 98°
2026-05-06 14:22 21.15448 -157.29873 16681 ft 418 kts 98°
2026-05-06 14:23 21.15062 -157.26778 17209 ft 421 kts 98°
2026-05-06 14:23 21.14674 -157.23659 17731 ft 425 kts 98°
2026-05-06 14:23 21.14298 -157.20499 18240 ft 428 kts 96°
2026-05-06 14:23 21.14255 -157.17290 18676 ft 432 kts 84°
2026-05-06 14:24 21.14887 -157.14148 19124 ft 433 kts 71°
2026-05-06 14:24 21.15987 -157.11127 19585 ft 435 kts 66°
2026-05-06 14:24 21.17188 -157.08134 20020 ft 438 kts 66°
2026-05-06 14:24 21.18402 -157.05131 20454 ft 440 kts 66°
2026-05-06 14:25 21.19603 -157.02144 20918 ft 442 kts 66°
2026-05-06 14:25 21.20817 -156.99107 21359 ft 444 kts 66°
2026-05-06 14:25 21.22034 -156.96052 21788 ft 446 kts 66°
2026-05-06 14:25 21.23241 -156.93014 22219 ft 448 kts 66°
2026-05-06 14:26 21.24463 -156.89934 22641 ft 450 kts 66°
2026-05-06 14:26 21.25690 -156.86837 23063 ft 452 kts 66°
2026-05-06 14:26 21.26924 -156.83719 23494 ft 455 kts 66°
2026-05-06 14:26 21.28164 -156.80585 23873 ft 457 kts 66°
2026-05-06 14:27 21.29410 -156.77434 24199 ft 460 kts 66°
2026-05-06 14:27 21.30662 -156.74264 24557 ft 462 kts 66°
2026-05-06 14:27 21.31914 -156.71081 24915 ft 465 kts 66°
2026-05-06 14:27 21.32976 -156.67791 25275 ft 468 kts 74°
2026-05-06 14:28 21.33553 -156.64340 25635 ft 472 kts 83°
2026-05-06 14:28 21.33826 -156.60828 25999 ft 474 kts 85°
2026-05-06 14:28 21.34041 -156.57285 26353 ft 477 kts 85°
2026-05-06 14:28 21.34249 -156.53768 26687 ft 480 kts 85°
2026-05-06 14:29 21.34465 -156.50173 27036 ft 482 kts 85°
2026-05-06 14:29 21.34684 -156.46571 27390 ft 485 kts 85°
2026-05-06 14:29 21.34907 -156.42947 27738 ft 487 kts 85°
2026-05-06 14:29 21.35130 -156.39312 28093 ft 490 kts 85°
2026-05-06 14:30 21.35279 -156.36890 28334 ft 491 kts 85°
2026-05-06 14:30 21.35503 -156.33229 28723 ft 493 kts 85°
2026-05-06 14:30 21.35728 -156.29555 29064 ft 495 kts 85°
2026-05-06 14:30 21.36027 -156.24646 29498 ft 498 kts 85°
2026-05-06 14:31 21.36254 -156.20921 29782 ft 502 kts 85°
2026-05-06 14:31 21.36406 -156.18396 29988 ft 503 kts 85°
2026-05-06 14:31 21.36633 -156.14648 30308 ft 504 kts 85°
2026-05-06 14:31 21.36856 -156.10940 30664 ft 504 kts 85°
2026-05-06 14:32 21.37081 -156.07174 31000 ft 505 kts 85°
2026-05-06 14:32 21.37306 -156.03408 31347 ft 505 kts 85°
2026-05-06 14:32 21.37530 -155.99637 31689 ft 505 kts 85°
2026-05-06 14:32 21.37754 -155.95855 32051 ft 506 kts 85°
2026-05-06 14:33 21.37974 -155.92130 32390 ft 506 kts 85°
2026-05-06 14:33 21.38196 -155.88348 32697 ft 508 kts 85°
2026-05-06 14:33 21.38419 -155.84551 33024 ft 509 kts 85°
2026-05-06 14:33 21.38640 -155.80756 33382 ft 509 kts 86°
2026-05-06 14:34 21.38861 -155.76955 33720 ft 509 kts 86°
2026-05-06 14:34 21.39078 -155.73207 34047 ft 510 kts 86°
2026-05-06 14:34 21.39297 -155.69407 34333 ft 510 kts 86°
2026-05-06 14:34 21.39516 -155.65602 34622 ft 511 kts 86°
2026-05-06 14:35 21.39734 -155.61795 34892 ft 511 kts 86°
2026-05-06 14:35 21.39951 -155.57973 35131 ft 512 kts 86°
2026-05-06 14:35 21.40168 -155.54152 35385 ft 513 kts 86°
2026-05-06 14:35 21.40385 -155.50323 35666 ft 513 kts 86°
2026-05-06 14:36 21.40598 -155.46539 35935 ft 514 kts 86°
2026-05-06 14:36 21.40812 -155.42711 36195 ft 514 kts 86°
2026-05-06 14:36 21.41027 -155.38869 36451 ft 515 kts 86°
2026-05-06 14:36 21.41240 -155.35031 36707 ft 515 kts 86°
2026-05-06 14:37 21.41454 -155.31181 36962 ft 516 kts 86°
2026-05-06 14:37 21.41666 -155.27335 37182 ft 517 kts 86°
2026-05-06 14:37 21.41876 -155.23512 37378 ft 518 kts 86°
2026-05-06 14:37 21.42087 -155.19647 37628 ft 518 kts 86°
2026-05-06 14:38 21.42301 -155.15782 37879 ft 518 kts 85°
2026-05-06 14:38 21.42683 -155.11938 38132 ft 518 kts 82°
2026-05-06 14:38 21.43195 -155.08104 38367 ft 519 kts 81°
2026-05-06 14:38 21.43767 -155.04272 38609 ft 519 kts 80°
2026-05-06 14:39 21.44363 -155.00447 38823 ft 519 kts 79°
2026-05-06 14:39 21.44963 -154.96626 39009 ft 519 kts 80°
2026-05-06 14:39 21.46141 -154.89008 39039 ft 519 kts 80°